Springfield, MO

3:20 AM CDT on March 24, 2017 (GMT -0500)
Springfield-Branson Regional

Weather History for KSGF - October, 2011

Change the Weather History Date:

Monday, October 17, 2011

  Actual Average Record
Temperature  
Mean Temperature 57 °F 58 °F  
Max Temperature 70 °F 69 °F 89 °F (1964)
Min Temperature 43 °F 46 °F 25 °F (1976)
Degree Days  
Heating Degree Days 8 8  
Month to date heating degree days 57 108  
Since 1 July heating degree days 150 163  
Cooling Degree Days 0 1  
Month to date cooling degree days 23 23  
Year to date cooling degree days 1815 1382  
Growing Degree Days 6 (Base 50)    
Moisture  
Dew Point 42 °F    
Average Humidity 57    
Maximum Humidity 66    
Minimum Humidity 47    
Precipitation  
Precipitation 0.48 in 0.11 in 1.46 in (1981)
Month to date precipitation 1.05 1.94  
Year to date precipitation 32.26 36.66  
Snow  
Snow 0.00 in - - ()
Month to date snowfall 0.0  
Since 1 July snowfall 0.0  
Since 1 September snowfall 0.0  
Snow Depth 0.00 in    
Sea Level Pressure  
Sea Level Pressure 29.88 in    
Wind  
Wind Speed 12 mph (ENE)    
Max Wind Speed 29 mph    
Max Gust Speed 40 mph    
Visibility 9 miles    
Events Rain , Thunderstorm    
T = Trace of Precipitation, MM = Missing Value Source: NWS Daily Summary

Daily Weather History Graph

Daily Weather History Graph

Search for Another Location

Airport or City:

Trip Planner

Search our weather history database for the weather conditions in past years. The results will help you decide how hot, cold, wet, or windy it might be!

Date:

Astronomy

Oct. 17, 2011 Rise Set
Actual Time 7:23 AM CDT 6:34 PM CDT
Civil Twilight 6:56 AM CDT 7:00 PM CDT
Nautical Twilight 6:26 AM CDT 7:30 PM CDT
Astronomical Twilight 5:56 AM CDT 8:00 PM CDT
Moon 10:20 PM CDT (10/17) 12:24 PM CDT (10/17)
Length of Visible Light 12h 03m
Length of Day
11h 11m
Waning Gibbous, 74% of the Moon is Illuminated
Oct 17
Waning Gibbous
Oct 19
Last Quarter
Oct 26
New
Nov 2
First Quarter
Nov 10
Full

Hourly Weather History & Observations

Time (CDT) Temp. Windchill Dew Point Humidity Pressure Visibility Wind Dir Wind Speed Gust Speed Precip Events Conditions
12:52 AM 54.0 °F - 43.0 °F 66% 29.96 in 10.0 mi NNE 4.6 mph - N/A   Clear
1:52 AM 54.0 °F - 43.0 °F 66% 29.96 in 10.0 mi NE 5.8 mph - N/A   Clear
2:52 AM 54.0 °F - 42.1 °F 64% 29.96 in 10.0 mi ENE 6.9 mph - N/A   Clear
3:52 AM 53.1 °F - 41.0 °F 64% 29.95 in 10.0 mi ENE 6.9 mph - N/A   Clear
4:52 AM 51.8 °F - 39.2 °F 62% 29.97 in 10.0 mi East 4.6 mph - N/A   Clear
5:52 AM 51.1 °F - 39.9 °F 66% 29.94 in 10.0 mi ESE 5.8 mph - N/A   Clear
6:52 AM 51.8 °F - 39.2 °F 62% 29.96 in 10.0 mi East 5.8 mph - N/A   Clear
7:52 AM 51.1 °F - 39.0 °F 63% 29.94 in 10.0 mi East 4.6 mph - N/A   Clear
8:52 AM 54.0 °F - 39.9 °F 59% 29.94 in 10.0 mi East 9.2 mph - N/A   Clear
9:52 AM 57.9 °F - 39.9 °F 51% 29.92 in 10.0 mi ESE 16.1 mph 21.9 mph N/A   Clear
10:52 AM 59.0 °F - 39.9 °F 49% 29.90 in 10.0 mi ESE 15.0 mph - N/A   Clear
11:52 AM 63.0 °F - 44.1 °F 50% 29.86 in 10.0 mi SE 15.0 mph 24.2 mph N/A   Clear
12:52 PM 64.0 °F - 45.0 °F 50% 29.83 in 10.0 mi SSE 11.5 mph - N/A   Clear
1:52 PM 66.0 °F - 46.9 °F 50% 29.79 in 10.0 mi ESE 12.7 mph - N/A   Clear
2:52 PM 66.9 °F - 46.9 °F 49% 29.77 in 10.0 mi East 8.1 mph - N/A   Clear
3:52 PM 68.0 °F - 48.0 °F 49% 29.74 in 10.0 mi East 10.4 mph - N/A   Clear
4:52 PM 68.0 °F - 48.0 °F 49% 29.75 in 10.0 mi ENE 10.4 mph - N/A   Clear
5:52 PM 64.0 °F - 46.0 °F 52% 29.77 in 10.0 mi NE 13.8 mph - N/A   Clear
6:52 PM 62.6 °F - 44.6 °F 52% 29.81 in 10.0 mi NE 13.8 mph - N/A   Partly Cloudy
7:52 PM 55.4 °F - 39.2 °F 54% 29.81 in 10.0 mi NE 17.3 mph - N/A   Clear
8:52 PM 52.0 °F - 37.0 °F 57% 29.83 in 10.0 mi NNE 20.7 mph 26.5 mph N/A   Partly Cloudy
9:52 PM 51.1 °F - 33.1 °F 50% 29.86 in 10.0 mi NNE 23.0 mph 34.5 mph N/A   Mostly Cloudy
10:52 PM 46.9 °F - 37.9 °F 71% 29.89 in 10.0 mi North 20.7 mph 27.6 mph 0.00 in Rain Light Rain
10:54 PM 46.4 °F 39.2 °F 37.4 °F 71% 29.89 in 10.0 mi NNE 18.4 mph 26.5 mph 0.00 in Rain , Thunderstorm Light Thunderstorms and Rain
11:48 PM 44.6 °F 36.9 °F 41.0 °F 87% 29.87 in 2.5 mi East 18.4 mph 28.8 mph 0.21 in Rain , Thunderstorm Heavy Thunderstorms and Rain
11:52 PM 45.0 °F 38.9 °F 42.1 °F 90% 29.90 in 2.5 mi ENE 12.7 mph 28.8 mph 0.25 in Rain , Thunderstorm Heavy Thunderstorms and Rain